• In Hungary
  • List of Countries
  • For 7 days
  • Water Temperature
  • Satellite Maps
  • Weather Map
  • News
  • Weather Widgets
  • user-avatar
    Login

    Hourly Weather Menen

    Today, 13 December, Wednesday

    Time Temperature Precipitation Wind Pressure Humidity
    00:00 -1°C° 0 mm 7 mps 757 mmHg 88%
    01:00 0°C° 0.1 mm 7 mps 756 mmHg 88%
    02:00 0°C° 0.1 mm 8 mps 755 mmHg 87%
    03:00 0°C° 0.1 mm 8 mps 754 mmHg 86%
    04:00 +1°C° 0.3 mm 9 mps 753 mmHg 86%
    05:00 +1°C° 0.3 mm 10 mps 752 mmHg 86%
    06:00 +1°C° 0 mm 10 mps 751 mmHg 86%
    07:00 +2°C° 0.7 mm 10 mps 751 mmHg 86%
    08:00 +2°C° 0.7 mm 10 mps 750 mmHg 87%
    09:00 +3°C° 0.7 mm 10 mps 749 mmHg 88%
    10:00 +3°C° 0.6 mm 9 mps 749 mmHg 88%
    11:00 +5°C° 0.6 mm 8 mps 748 mmHg 88%
    12:00 +5°C° 0.6 mm 7 mps 748 mmHg 88%
    13:00 +6°C° 0.4 mm 7 mps 747 mmHg 88%
    14:00 +6°C° 0.4 mm 7 mps 746 mmHg 88%
    15:00 +6°C° 0.4 mm 7 mps 745 mmHg 88%
    16:00 +6°C° 2.1 mm 9 mps 744 mmHg 87%
    17:00 +6°C° 2.1 mm 10 mps 743 mmHg 87%
    18:00 +6°C° 2.1 mm 11 mps 742 mmHg 87%
    19:00 +6°C° 1.3 mm 10 mps 742 mmHg 81%
    20:00 +5°C° 1.3 mm 9 mps 742 mmHg 76%
    21:00 +5°C° 1.3 mm 8 mps 742 mmHg 71%
    22:00 +4°C° 1 mm 8 mps 742 mmHg 73%
    23:00 +3°C° 1 mm 9 mps 743 mmHg 76%

    Tomorrow, 14 December, Thursday

    Time Temperature Precipitation Wind Pressure Humidity
    00:00 +2°C° 1 mm 9 mps 743 mmHg 78%
    01:00 +2°C° 0.3 mm 9 mps 743 mmHg 73%
    02:00 +1°C° 0.3 mm 9 mps 744 mmHg 69%
    03:00 +1°C° 0.3 mm 9 mps 745 mmHg 64%
    04:00 +1°C° 0 mm 9 mps 745 mmHg 66%
    05:00 +1°C° 0 mm 8 mps 746 mmHg 68%
    06:00 +2°C° 0 mm 7 mps 746 mmHg 70%
    07:00 +2°C° 0.2 mm 7 mps 746 mmHg 70%
    08:00 +2°C° 0.2 mm 7 mps 746 mmHg 71%
    09:00 +3°C° 0.2 mm 7 mps 746 mmHg 72%
    10:00 +3°C° 0.3 mm 7 mps 745 mmHg 70%
    11:00 +4°C° 0.3 mm 7 mps 745 mmHg 69%
    12:00 +4°C° 0.3 mm 7 mps 745 mmHg 67%
    13:00 +4°C° 0.3 mm 7 mps 744 mmHg 69%
    14:00 +4°C° 0.3 mm 6 mps 743 mmHg 71%
    15:00 +4°C° 0.3 mm 6 mps 743 mmHg 73%
    16:00 +3°C° 0.3 mm 6 mps 742 mmHg 74%
    17:00 +3°C° 0.3 mm 5 mps 742 mmHg 75%
    18:00 +2°C° 0.3 mm 5 mps 742 mmHg 75%
    19:00 +2°C° 0.1 mm 5 mps 742 mmHg 75%
    20:00 +2°C° 0.1 mm 5 mps 742 mmHg 75%
    21:00 +1°C° 0.1 mm 4 mps 743 mmHg 76%
    22:00 +1°C° 0 mm 4 mps 742 mmHg 77%
    23:00 +1°C° 0 mm 4 mps 742 mmHg 78%

    Day after tomorrow, 15 December, Friday

    Time Temperature Precipitation Wind Pressure Humidity
    00:00 0°C° 0 mm 4 mps 742 mmHg 80%
    01:00 +1°C° 0.2 mm 5 mps 742 mmHg 81%
    02:00 +1°C° 0.2 mm 5 mps 742 mmHg 82%
    03:00 +2°C° 0.2 mm 6 mps 742 mmHg 83%
    04:00 +2°C° 0.1 mm 5 mps 742 mmHg 84%
    05:00 +1°C° 0.1 mm 5 mps 742 mmHg 86%
    06:00 +1°C° 0.1 mm 4 mps 742 mmHg 87%
    07:00 +1°C° 0 mm 4 mps 743 mmHg 87%
    08:00 +2°C° 0 mm 3 mps 743 mmHg 87%
    09:00 +2°C° 0 mm 3 mps 744 mmHg 88%
    10:00 +3°C° 0 mm 3 mps 744 mmHg 85%
    11:00 +4°C° 0 mm 3 mps 744 mmHg 82%
    12:00 +5°C° 0 mm 3 mps 745 mmHg 80%
    13:00 +5°C° 0.1 mm 3 mps 745 mmHg 82%
    14:00 +4°C° 0.1 mm 3 mps 746 mmHg 83%
    15:00 +4°C° 0.1 mm 3 mps 747 mmHg 85%
    16:00 +4°C° 0 mm 3 mps 748 mmHg 86%
    17:00 +3°C° 0 mm 3 mps 749 mmHg 87%
    18:00 +2°C° 0 mm 3 mps 750 mmHg 88%
    19:00 +3°C° 0.1 mm 4 mps 750 mmHg 87%
    20:00 +3°C° 0.1 mm 4 mps 751 mmHg 86%
    21:00 +3°C° 0.1 mm 4 mps 752 mmHg 84%
    22:00 +3°C° 0.1 mm 4 mps 753 mmHg 84%
    23:00 +3°C° 0.1 mm 4 mps 753 mmHg 83%

    16 December, Saturday

    Time Temperature Precipitation Wind Pressure Humidity
    00:00 +1°C° 0.1 mm 5 mps 754 mmHg 82%
    01:00 +1°C° 0.1 mm 5 mps 754 mmHg 83%
    02:00 +1°C° 0.1 mm 5 mps 754 mmHg 83%
    03:00 +1°C° 0.1 mm 5 mps 755 mmHg 84%
    04:00 +1°C° 0.1 mm 5 mps 755 mmHg 84%
    05:00 0°C° 0.1 mm 5 mps 756 mmHg 84%
    06:00 0°C° 0.1 mm 5 mps 756 mmHg 84%
    07:00 0°C° 0.1 mm 5 mps 757 mmHg 83%
    08:00 +1°C° 0.1 mm 5 mps 757 mmHg 82%
    09:00 +1°C° 0.1 mm 5 mps 758 mmHg 82%
    10:00 +2°C° 0.1 mm 5 mps 758 mmHg 79%
    11:00 +2°C° 0.1 mm 5 mps 759 mmHg 77%
    12:00 +3°C° 0.1 mm 6 mps 759 mmHg 74%
    13:00 +3°C° 0.1 mm 5 mps 759 mmHg 75%
    14:00 +2°C° 0.1 mm 5 mps 760 mmHg 76%
    15:00 +2°C° 0.1 mm 5 mps 760 mmHg 76%
    16:00 +1°C° 0 mm 4 mps 761 mmHg 78%
    17:00 +1°C° 0 mm 4 mps 761 mmHg 79%
    18:00 0°C° 0 mm 4 mps 762 mmHg 81%
    19:00 0°C° 0 mm 4 mps 762 mmHg 82%
    20:00 0°C° 0 mm 4 mps 763 mmHg 82%
    21:00 0°C° 0 mm 4 mps 763 mmHg 83%
    22:00 +1°C° 0.2 mm 4 mps 763 mmHg 83%
    23:00 +1°C° 0.2 mm 4 mps 763 mmHg 83%

    17 December, Sunday

    Time Temperature Precipitation Wind Pressure Humidity
    00:00 +1°C° 0.2 mm 4 mps 764 mmHg 83%
    01:00 +1°C° 0.1 mm 4 mps 764 mmHg 85%
    02:00 +1°C° 0.1 mm 4 mps 764 mmHg 87%
    03:00 +1°C° 0.1 mm 4 mps 764 mmHg 89%
    04:00 +2°C° 0.1 mm 3 mps 764 mmHg 89%
    05:00 +2°C° 0.1 mm 3 mps 765 mmHg 89%
    06:00 +2°C° 0.1 mm 3 mps 765 mmHg 89%
    07:00 +3°C° 0 mm 2 mps 766 mmHg 87%
    08:00 +3°C° 0 mm 2 mps 766 mmHg 86%
    09:00 +3°C° 0 mm 2 mps 767 mmHg 84%
    10:00 +4°C° 0 mm 2 mps 767 mmHg 81%
    11:00 +5°C° 0 mm 2 mps 767 mmHg 77%
    12:00 +6°C° 0 mm 2 mps 768 mmHg 73%
    13:00 +6°C° 0 mm 2 mps 768 mmHg 76%
    14:00 +5°C° 0 mm 2 mps 768 mmHg 79%
    15:00 +5°C° 0 mm 2 mps 768 mmHg 82%
    16:00 +4°C° 0 mm 2 mps 769 mmHg 84%
    17:00 +3°C° 0 mm 2 mps 769 mmHg 87%
    18:00 +2°C° 0 mm 3 mps 769 mmHg 89%
    19:00 +2°C° 0 mm 3 mps 769 mmHg 89%
    20:00 +1°C° 0 mm 3 mps 769 mmHg 89%
    21:00 0°C° 0 mm 4 mps 770 mmHg 89%
    22:00 0°C° 0 mm 4 mps 769 mmHg 89%
    23:00 0°C° 0 mm 5 mps 769 mmHg 88%

    18 December, Monday

    Time Temperature Precipitation Wind Pressure Humidity
    00:00 +1°C° 0 mm 6 mps 768 mmHg 87%
    01:00 +1°C° 0.1 mm 6 mps 768 mmHg 87%
    02:00 +2°C° 0.1 mm 7 mps 767 mmHg 86%
    03:00 +3°C° 0.1 mm 7 mps 767 mmHg 86%
    04:00 +4°C° 0.8 mm 7 mps 766 mmHg 88%
    05:00 +5°C° 0.8 mm 7 mps 766 mmHg 91%
    06:00 +6°C° 0.8 mm 8 mps 765 mmHg 93%
    07:00 +6°C° 0.5 mm 7 mps 765 mmHg 93%
    08:00 +8°C° 0.5 mm 7 mps 765 mmHg 93%
    09:00 +8°C° 0.5 mm 7 mps 765 mmHg 93%
    10:00 +8°C° 0.1 mm 7 mps 765 mmHg 91%
    11:00 +9°C° 0.1 mm 7 mps 765 mmHg 89%
    12:00 +9°C° 0.1 mm 6 mps 766 mmHg 87%
    13:00 +8°C° 0 mm 6 mps 766 mmHg 87%
    14:00 +8°C° 0 mm 6 mps 766 mmHg 86%
    15:00 +7°C° 0 mm 5 mps 767 mmHg 86%
    16:00 +7°C° 0 mm 5 mps 768 mmHg 87%
    17:00 +6°C° 0 mm 4 mps 768 mmHg 89%
    18:00 +5°C° 0 mm 4 mps 769 mmHg 90%
    19:00 +5°C° 0 mm 3 mps 770 mmHg 90%
    20:00 +4°C° 0 mm 3 mps 770 mmHg 91%
    21:00 +4°C° 0 mm 3 mps 771 mmHg 91%
    22:00 +5°C° 0 mm 2 mps 771 mmHg 91%
    23:00 +5°C° 0 mm 2 mps 771 mmHg 91%
    Show more